Showing default

YURI (BSE), 10792

Orbit data source: Space-Track

YURI (BSE), 10792 is a payload satellite owned by NASDA (JP) in GEO that was launched on Fri, 07 Apr 1978 UTC via a DELTA 2914 launch vehicle from the Air Force Eastern Test Range (AFETR). Payload-class satellites include a variety of spacecraft equipped with specific instruments for various scientific and technological missions. These include communications satellites like Starlink; space stations such as the ISS; scientific satellites like the Hubble; Earth observation satellites from companies like Planet Labs, Umbra, and HawkEye 360; GPS; miniature CubeSats for education and research; and military/defense satellites.

Not visible in the next 10 days
Identifier
10792, 1978-039A
Orbit
GEO
Country
Flag of JPJP / JPN
Related business
Manufacturer
GEVF/TOSH
Mission
Non-operational Civil Communications
Bus & Motor
BS, STAR 27
Mass
678 kg wet, ~295 kg dry
Launch date (UTC)
1978-04-07 (47 years ago)
Launch vehicle
DELTA 2914
Launch site
Air Force Eastern Test Range (AFETR)
Object type
Payload
Rocket body
Debris
Shape & HBR
Hex Poly + 2 Pan, 1.5 m
Radar Cross Section
2.497 m², Large (>1 m²)

Expand to show TLE details & history
Last TLE update: 16 hours ago

TLE from 16 hours ago
0 YURI (BSE)
1 10792U 78039A   25261.03193336 -.00000358  00000-0  00000-0 0  9997
2 10792   6.1555 286.8152 0020624 304.7405 242.7970  1.00244715116038
Epoch: 2025-09-18T00:45Z
TLE epoch observation values (Epoch: 2025-09-18T00:45:59.042Z)
Latitude
-0.79683°
Longitude
105.42512°
Altitude
35,833.262 km
Speed
3.072 km/s
True Right ascension
07h 36m 28s
True Declination
0° 47' 46"
Sunlit
Object was in daylight at epoch
Visualization orbit readout
Latitude
Unknown
Longitude
Unknown
Altitude
Unknown
Speed
Unknown
Apparent Right ascension
Unknown
Apparent Declination
Unknown
Sunlit
N/A
Visualization observer readout
Local Sidereal Time
09:18:38
Azimuth
Unknown
Elevation
Unknown
Doppler factor
Unknown
Orbital elements
Apogee altitude
35,882.216 km
Perigee altitude
35,708.259 km
Semi-major axis
42,173.375 km
Eccentricity
0.00206
Inclination
6.1555°
RAAN
286.8152°
Arg. of periapsis
304.7405°
True anomaly
242.58705°
Mean anomaly
242.797°
Eccentric anomaly
242.692°
Mean motion
0.2506 °/min
Orbital period
1,436.54 mins
BSTAR
0
Loading maneuver chart data...
Computing Atmospheric mass density...
Loading historical data...
Loading historical data...
Loading historical data...
Loading historical data...
Loading historical data...
Loading historical data...
Loading historical data...
Other satellites on launch #39 in the year 1978 (1978-04-07 UTC)

Documentation

Showing up to 5 results
|